Change the Weather History Date:

Wednesday, January 2, 2013

  Actual Average (LIVT) Record (LIVT)
Temperature  
Mean Temperature 44 °F -  
Max Temperature 50 °F 47 °F 53 °F (2005)
Min Temperature 39 °F 40 °F 33 °F (2002)
Degree Days  
Heating Degree Days 20    
Moisture  
Dew Point 42 °F    
Average Humidity 90    
Maximum Humidity 100    
Minimum Humidity 81    
Precipitation  
Precipitation 0.00 in - - ()
Sea Level Pressure  
Sea Level Pressure 30.17 in    
Wind  
Wind Speed 3 mph ()    
Max Wind Speed 7 mph    
Max Gust Speed -    
Visibility 5.7 miles    
Events Rain    
Averages and records for this station are not official NWS values.
T = Trace of Precipitation, MM = Missing Value Source: Averaged Metar Reports

Daily Weather History Graph

Daily Weather History Graph

Search for Another Location

Airport or City:

Trip Planner

Search our weather history database for the weather conditions in past years. The results will help you decide how hot, cold, wet, or windy it might be!

Date:

Astronomy

Jan. 02, 2013 Rise Set
Actual Time 7:45 AM CET 4:33 PM CET
Civil Twilight 7:11 AM CET 5:07 PM CET
Nautical Twilight 6:34 AM CET 5:45 PM CET
Astronomical Twilight 5:58 AM CET 6:21 PM CET
Moon 10:05 PM CET (1/2) 10:03 AM CET (1/2)
Length of Visible Light 9h 56m
Length of Day
8h 48m
Waning Gibbous, 77% of the Moon is Illuminated
Jan 2
Waning Gibbous
Jan 5
Last Quarter
Jan 11
New
Jan 19
First Quarter
Jan 27
Full

Hourly Weather History & Observations

Time (CET) Temp. Windchill Dew Point Humidity Pressure Visibility Wind Dir Wind Speed Gust Speed Precip Events Conditions
12:00 AM 39.2 °F 37.0 °F 35.6 °F 87% 30.06 in 3.7 mi ESE 3.5 mph - N/A   Overcast
12:30 AM 39.2 °F 35.9 °F 37.4 °F 93% 30.06 in 3.1 mi SE 4.6 mph - N/A   Mostly Cloudy
1:00 AM 39.2 °F - 37.4 °F 93% 30.06 in - Variable 2.3 mph - N/A   Overcast
1:30 AM 39.2 °F - 37.4 °F 93% 30.04 in 3.7 mi ESE 2.3 mph - N/A   Scattered Clouds
2:00 AM 41.0 °F 38.0 °F 37.4 °F 87% 30.06 in 4.3 mi ESE 4.6 mph - N/A   Mostly Cloudy
2:30 AM 41.0 °F - 37.4 °F 87% 30.06 in 4.3 mi Variable 1.2 mph - N/A   Mostly Cloudy
3:00 AM 41.0 °F - 39.2 °F 93% 30.06 in 5.0 mi Variable 2.3 mph - N/A   Overcast
3:30 AM 41.0 °F 39.0 °F 39.2 °F 93% 30.06 in 5.0 mi ESE 3.5 mph - N/A   Mostly Cloudy
4:00 AM 41.0 °F 36.4 °F 39.2 °F 93% 30.04 in 5.6 mi ESE 6.9 mph - N/A   Scattered Clouds
4:30 AM 42.8 °F - 39.2 °F 87% 30.06 in 5.6 mi Variable 2.3 mph - N/A   Mostly Cloudy
5:00 AM 41.0 °F - 39.2 °F 93% 30.06 in 5.0 mi Variable 2.3 mph - N/A   Scattered Clouds
5:30 AM 41.0 °F - 39.2 °F 93% 30.06 in 5.6 mi SSE 1.2 mph - N/A   Mostly Cloudy
6:00 AM 42.8 °F 41.1 °F 39.2 °F 87% 30.06 in 6.2 mi ESE 3.5 mph - N/A   Mostly Cloudy
6:30 AM 42.8 °F 40.1 °F 39.2 °F 87% 30.06 in 6.2 mi ESE 4.6 mph - N/A   Mostly Cloudy
7:00 AM 42.8 °F 40.1 °F 39.2 °F 87% 30.06 in 6.2 mi ESE 4.6 mph - N/A   Mostly Cloudy
7:30 AM 42.8 °F - 39.2 °F 87% 30.09 in 6.2 mi Variable 1.2 mph - N/A Rain Light Rain
8:00 AM 42.8 °F - 41.0 °F 93% 30.09 in 6.2 mi ESE 2.3 mph - N/A Rain Light Rain
8:30 AM 42.8 °F 40.1 °F 41.0 °F 93% 30.09 in 6.2 mi ESE 4.6 mph - N/A Rain Light Rain
9:00 AM 42.8 °F 40.1 °F 41.0 °F 93% 30.09 in 6.2 mi SE 4.6 mph - N/A Rain Light Rain
9:30 AM 44.6 °F 43.1 °F 42.8 °F 93% 30.12 in 6.2 mi ESE 3.5 mph - N/A   Overcast
10:00 AM 44.6 °F - 42.8 °F 93% 30.12 in 6.2 mi Calm Calm - N/A Rain Light Rain
10:30 AM 46.4 °F - 44.6 °F 93% 30.12 in 6.2 mi Variable 1.2 mph - N/A   Overcast
11:00 AM 48.2 °F - 44.6 °F 87% 30.15 in 6.2 mi ESE 1.2 mph - N/A   Overcast
11:30 AM 48.2 °F - 44.6 °F 87% 30.15 in 6.2 mi Calm Calm - N/A   Overcast
12:00 PM 50.0 °F - 46.4 °F 87% 30.15 in 6.2 mi Calm Calm - N/A   Overcast
12:30 PM 48.2 °F - 46.4 °F 93% 30.15 in 6.2 mi West 3.5 mph - N/A   Overcast
1:00 PM 50.0 °F - 46.4 °F 87% 30.15 in 6.2 mi Variable 2.3 mph - N/A Rain Light Rain
1:30 PM 50.0 °F - 46.4 °F 87% 30.15 in 6.2 mi NNW 4.6 mph - N/A Rain Light Rain
2:00 PM 50.0 °F - 46.4 °F 87% 30.18 in 3.7 mi WNW 3.5 mph - N/A Rain Light Rain
2:30 PM 50.0 °F - 46.4 °F 87% 30.18 in 3.7 mi WSW 3.5 mph - N/A Rain Light Rain
3:00 PM 50.0 °F - 46.4 °F 87% 30.18 in 6.2 mi Variable 1.2 mph - N/A Rain Light Rain
3:30 PM 50.0 °F - 46.4 °F 87% 30.21 in 6.2 mi Variable 2.3 mph - N/A Rain Light Rain
4:00 PM 48.2 °F - 46.4 °F 93% 30.21 in 6.2 mi NW 3.5 mph - N/A Rain Light Rain
4:30 PM 48.2 °F - 46.4 °F 93% 30.24 in 6.2 mi Calm Calm - N/A Rain Light Rain
5:00 PM 46.4 °F 45.2 °F 46.4 °F 100% 30.24 in 6.2 mi WSW 3.5 mph - N/A   Overcast
5:30 PM 48.2 °F - 46.4 °F 93% 30.24 in 6.2 mi Variable 2.3 mph - N/A Rain Light Rain
6:00 PM 48.2 °F - 46.4 °F 93% 30.27 in 6.2 mi SE 3.5 mph - N/A   Overcast
6:30 PM 48.2 °F - 46.4 °F 93% 30.27 in 6.2 mi SE 1.2 mph - N/A   Overcast
7:00 PM 46.4 °F 44.3 °F 46.4 °F 100% 30.30 in 6.2 mi ESE 4.6 mph - N/A Rain Light Rain
7:30 PM 46.4 °F 44.3 °F 44.6 °F 93% 30.30 in 6.2 mi SE 4.6 mph - N/A   Overcast
8:00 PM 46.4 °F - 44.6 °F 93% 30.33 in 6.2 mi Variable 2.3 mph - N/A   Overcast
8:30 PM 46.4 °F 45.2 °F 44.6 °F 93% 30.33 in 6.2 mi ESE 3.5 mph - N/A   Overcast
9:00 PM 46.4 °F - 42.8 °F 87% 30.33 in 6.2 mi Variable 2.3 mph - N/A   Overcast
9:30 PM 46.4 °F - 42.8 °F 87% 30.36 in 6.2 mi SE 2.3 mph - N/A   Overcast
10:00 PM 46.4 °F 43.5 °F 42.8 °F 87% 30.36 in 6.2 mi SE 5.8 mph - N/A   Overcast
10:30 PM 46.4 °F 45.2 °F 41.0 °F 81% 30.36 in 6.2 mi Variable 3.5 mph - N/A   Unknown
11:00 PM 46.4 °F - 41.0 °F 81% 30.39 in 6.2 mi Variable 2.3 mph - N/A   Mostly Cloudy
11:30 PM 46.4 °F - 41.0 °F 81% 30.39 in 6.2 mi Variable 1.2 mph - N/A   Unknown